Location: ??????
(55.6361°N, 38.0803°E)
Time: 03:30:28
(UTC+00:00)

FALCON 9 DEB - Pass Details

Date: 30 March 2020
Orbit: 428 x 442 km, 53.0° (Epoch: 31 May)

Event Time Altitude Azimuth Distance (km) Brightness Sun altitude
Exits shadow 01:41:41 19° 257° (WSW) 1,095 4.5 -11.8°
Maximum altitude 01:43:38 36° 200° (SSW) 702 3.8 -11.6°
Drops below altitude 10° 01:46:50 10° 132° (SE) 1,536 6.2 -11.2°
Sets 01:49:02 0° 124° (ESE) 2,399 7.4 -10.9°
